Location: McKinney
(33.1972°N, 96.6398°W)
Time: 12:46:11
(UTC-05:00)

ISS - Pass Details

Date: 28 April 2019
Orbit: 407 x 410 km, 51.6° (Epoch: 22 May)

Event Time Altitude Azimuth Distance (km) Brightness Sun altitude
Exits shadow 06:05:10 11° 248° (WSW) 1,415 -1.8 -8.1°
Maximum altitude 06:08:10 41° 320° (NW) 607 -3.1 -7.5°
Drops below altitude 10° 06:11:19 10° 32° (NNE) 1,476 -0.1 -6.9°
Sets 06:13:29 0° 40° (NE) 2,341 1.3 -6.5°
